TVS7A7 LKPR-GCLP

Flight info

Callsign TVS7A7
Flight time N/A
Altitude 36000
Route DOBEN DCT RUDAP P31 DOSEL DCT EBEDA DCT BADVI DCT BERAS DCT OLPIX DCT EKPEB DCT OSKOR DCT VOG DCT GEKBA DCT VAMTU DCT KOLON DCT GANGU DCT PADKO DCT DIVKO DCT NILDU DCT NENDA DCT BCN M985 VLC N860 RESTU N851 VJF L82 RUNAX UL82 IBALU UN857 TERTO
Aircraft B38M/M-SDE3FGHIJ1M3RWXYZ/LB1

Departure

Time N/A
Airport Václav Havel Airport Prague (LKPR)

Arrival

Time 2026-05-06 19:38
Airport Gran Canaria Airport (GCLP)
Time Latitude Longitude Altitude Speed Heading
2026-05-06 17:51 35.94965 -6.44515 35904 ft 418 kts 234°
2026-05-06 17:52 35.91430 -6.50222 35903 ft 419 kts 234°
2026-05-06 17:52 35.87883 -6.55922 35905 ft 419 kts 234°
2026-05-06 17:53 35.84331 -6.61624 35904 ft 420 kts 234°
2026-05-06 17:53 35.80770 -6.67326 35910 ft 420 kts 234°
2026-05-06 17:54 35.77205 -6.73026 35907 ft 420 kts 234°
2026-05-06 17:54 35.73633 -6.78728 35911 ft 421 kts 234°
2026-05-06 17:55 35.70057 -6.84427 35906 ft 421 kts 234°
2026-05-06 17:55 35.66477 -6.90123 35913 ft 421 kts 234°
2026-05-06 17:56 35.62894 -6.95813 35919 ft 421 kts 234°
2026-05-06 17:56 35.59311 -7.01495 35916 ft 421 kts 234°
2026-05-06 17:57 35.55721 -7.07180 35917 ft 421 kts 234°
2026-05-06 17:57 35.52126 -7.12863 35918 ft 421 kts 234°
2026-05-06 17:58 35.48527 -7.18541 35921 ft 421 kts 234°
2026-05-06 17:58 35.44923 -7.24218 35917 ft 422 kts 234°
2026-05-06 17:59 35.41319 -7.29887 35918 ft 422 kts 234°
2026-05-06 17:59 35.37711 -7.35552 35923 ft 422 kts 234°
2026-05-06 18:00 35.34101 -7.41212 35923 ft 422 kts 234°
2026-05-06 18:00 35.30487 -7.46869 35925 ft 421 kts 234°
2026-05-06 18:01 35.26873 -7.52517 35924 ft 421 kts 234°
2026-05-06 18:01 35.23256 -7.58160 35927 ft 421 kts 234°
2026-05-06 18:02 35.19640 -7.63792 35925 ft 421 kts 234°
2026-05-06 18:02 35.16020 -7.69421 35929 ft 421 kts 234°
2026-05-06 18:03 35.12405 -7.75034 35933 ft 420 kts 233°
2026-05-06 18:03 35.08788 -7.80641 35930 ft 420 kts 233°
2026-05-06 18:04 35.05171 -7.86238 35930 ft 419 kts 233°
2026-05-06 18:04 35.01583 -7.91783 35939 ft 419 kts 233°
2026-05-06 18:05 34.97971 -7.97355 35942 ft 419 kts 233°
2026-05-06 18:05 34.94359 -8.02920 35938 ft 418 kts 233°
2026-05-06 18:06 34.90746 -8.08475 35940 ft 418 kts 233°
2026-05-06 18:06 34.87132 -8.14024 35940 ft 418 kts 233°
2026-05-06 18:07 34.83520 -8.19562 35940 ft 417 kts 233°
2026-05-06 18:07 34.79905 -8.25094 35941 ft 417 kts 233°
2026-05-06 18:08 34.76291 -8.30618 35945 ft 417 kts 233°
2026-05-06 18:08 34.72678 -8.36130 35945 ft 417 kts 233°
2026-05-06 18:09 34.69067 -8.41632 35948 ft 416 kts 233°
2026-05-06 18:09 34.65455 -8.47126 35947 ft 416 kts 233°
2026-05-06 18:10 34.62427 -8.51726 35946 ft 416 kts 233°
2026-05-06 18:10 34.58835 -8.57173 35945 ft 416 kts 233°
2026-05-06 18:11 34.55219 -8.62652 35948 ft 416 kts 233°
2026-05-06 18:11 34.51603 -8.68122 35948 ft 416 kts 233°
2026-05-06 18:12 34.47960 -8.73624 35950 ft 416 kts 233°
2026-05-06 18:12 34.44271 -8.79017 35940 ft 417 kts 225°
2026-05-06 18:13 34.39771 -8.83392 35948 ft 419 kts 221°
2026-05-06 18:13 34.35220 -8.87791 35947 ft 419 kts 221°
2026-05-06 18:14 34.30657 -8.92173 35950 ft 419 kts 221°
2026-05-06 18:14 34.26089 -8.96553 35950 ft 419 kts 221°
2026-05-06 18:15 34.21519 -9.00928 35953 ft 419 kts 221°
2026-05-06 18:15 34.16952 -9.05294 35952 ft 419 kts 221°
2026-05-06 18:16 34.12380 -9.09658 35955 ft 419 kts 221°
2026-05-06 18:16 34.07805 -9.14020 35957 ft 419 kts 221°
2026-05-06 18:17 34.03229 -9.18375 35956 ft 419 kts 221°
2026-05-06 18:17 33.98652 -9.22727 35954 ft 419 kts 221°
2026-05-06 18:18 33.94073 -9.27074 35958 ft 419 kts 221°
2026-05-06 18:18 33.89492 -9.31416 35956 ft 419 kts 221°
2026-05-06 18:19 33.84904 -9.35759 35959 ft 420 kts 221°
2026-05-06 18:19 33.80311 -9.40100 35958 ft 420 kts 221°
2026-05-06 18:20 33.75718 -9.44436 35958 ft 420 kts 221°
2026-05-06 18:20 33.71122 -9.48768 35960 ft 420 kts 221°
2026-05-06 18:21 33.66520 -9.53100 35956 ft 420 kts 221°
2026-05-06 18:21 33.61949 -9.57396 35960 ft 420 kts 221°
2026-05-06 18:22 33.57343 -9.61720 35960 ft 420 kts 221°
2026-05-06 18:22 33.52734 -9.66039 35962 ft 421 kts 221°
2026-05-06 18:23 33.48122 -9.70357 35964 ft 421 kts 221°
2026-05-06 18:23 33.43502 -9.74676 35962 ft 421 kts 221°
2026-05-06 18:24 33.38875 -9.78994 35963 ft 422 kts 221°
2026-05-06 18:24 33.34245 -9.83311 35961 ft 422 kts 221°
2026-05-06 18:25 33.29607 -9.87627 35960 ft 423 kts 221°
2026-05-06 18:25 33.24970 -9.91939 35968 ft 423 kts 221°
2026-05-06 18:26 33.20319 -9.96256 35959 ft 423 kts 221°
2026-05-06 18:26 33.15667 -10.00569 35963 ft 424 kts 221°
2026-05-06 18:27 33.11008 -10.04882 35964 ft 424 kts 221°
2026-05-06 18:27 33.06347 -10.09192 35965 ft 424 kts 221°
2026-05-06 18:28 33.01678 -10.13503 35966 ft 425 kts 221°
2026-05-06 18:28 32.97001 -10.17805 35965 ft 425 kts 221°
2026-05-06 18:29 32.92322 -10.22107 35967 ft 425 kts 221°
2026-05-06 18:29 32.87637 -10.26408 35966 ft 425 kts 221°
2026-05-06 18:30 32.82946 -10.30710 35966 ft 426 kts 221°
2026-05-06 18:30 32.78283 -10.34979 35969 ft 426 kts 221°
2026-05-06 18:31 32.73585 -10.39274 35970 ft 426 kts 221°
2026-05-06 18:31 32.68880 -10.43571 35968 ft 427 kts 221°
2026-05-06 18:32 32.64169 -10.47867 35970 ft 427 kts 220°
2026-05-06 18:32 32.59453 -10.52161 35961 ft 427 kts 220°
2026-05-06 18:33 32.54735 -10.56451 35965 ft 428 kts 221°
2026-05-06 18:33 32.50007 -10.60745 35960 ft 428 kts 221°
2026-05-06 18:34 32.45280 -10.65033 35967 ft 428 kts 220°
2026-05-06 18:34 32.40544 -10.69322 35963 ft 429 kts 220°
2026-05-06 18:35 32.35803 -10.73609 35976 ft 429 kts 220°
2026-05-06 18:35 32.31055 -10.77898 35965 ft 430 kts 220°
2026-05-06 18:36 32.26304 -10.82184 35974 ft 430 kts 220°
2026-05-06 18:36 32.21544 -10.86471 35976 ft 431 kts 220°
2026-05-06 18:37 32.16776 -10.90760 35976 ft 431 kts 220°
2026-05-06 18:37 32.12005 -10.95046 35976 ft 431 kts 220°
2026-05-06 18:38 32.07229 -10.99331 35974 ft 431 kts 220°
2026-05-06 18:38 32.02448 -11.03614 35975 ft 432 kts 220°
2026-05-06 18:39 31.97662 -11.07897 35972 ft 432 kts 220°
2026-05-06 18:40 31.90464 -11.14326 35977 ft 433 kts 220°
2026-05-06 18:40 31.85660 -11.18610 35979 ft 434 kts 220°
2026-05-06 18:41 31.80850 -11.22896 35977 ft 434 kts 220°
2026-05-06 18:41 31.76033 -11.27182 35978 ft 434 kts 220°
2026-05-06 18:42 31.71221 -11.31476 35981 ft 434 kts 220°
2026-05-06 18:42 31.66407 -11.35766 35978 ft 435 kts 220°
2026-05-06 18:43 31.61588 -11.40057 35979 ft 435 kts 220°
2026-05-06 18:43 31.56763 -11.44346 35979 ft 436 kts 220°
2026-05-06 18:44 31.51930 -11.48637 35980 ft 436 kts 220°
2026-05-06 18:44 31.47091 -11.52928 35980 ft 436 kts 220°
2026-05-06 18:45 31.42247 -11.57216 35981 ft 437 kts 220°
2026-05-06 18:45 31.37429 -11.61478 35982 ft 437 kts 220°
2026-05-06 18:46 31.32574 -11.65766 35982 ft 438 kts 220°
2026-05-06 18:46 31.27708 -11.70057 35981 ft 438 kts 220°
2026-05-06 18:47 31.22836 -11.74348 35983 ft 439 kts 220°
2026-05-06 18:47 31.17958 -11.78639 35982 ft 439 kts 220°
2026-05-06 18:48 31.13074 -11.82929 35985 ft 440 kts 220°
2026-05-06 18:48 31.08183 -11.87221 35990 ft 440 kts 220°
2026-05-06 18:49 31.03282 -11.91514 35989 ft 441 kts 220°
2026-05-06 18:49 30.98373 -11.95810 35991 ft 442 kts 220°
2026-05-06 18:50 30.93455 -12.00107 35989 ft 442 kts 220°
2026-05-06 18:50 30.88532 -12.04403 35991 ft 442 kts 220°
2026-05-06 18:51 30.83601 -12.08701 35992 ft 443 kts 220°
2026-05-06 18:51 30.78668 -12.12995 35991 ft 443 kts 220°
2026-05-06 18:52 30.73725 -12.17292 35993 ft 443 kts 220°
2026-05-06 18:52 30.68781 -12.21584 35993 ft 444 kts 220°
2026-05-06 18:53 30.63824 -12.25881 35993 ft 445 kts 220°
2026-05-06 18:53 30.58897 -12.30149 35999 ft 445 kts 220°
2026-05-06 18:54 30.53927 -12.34448 35999 ft 446 kts 220°
2026-05-06 18:54 30.48948 -12.38738 35999 ft 447 kts 220°
2026-05-06 18:55 30.43951 -12.43034 36003 ft 447 kts 220°
2026-05-06 18:55 30.38951 -12.47327 36003 ft 448 kts 220°
2026-05-06 18:56 30.33945 -12.51620 36002 ft 448 kts 220°
2026-05-06 18:56 30.28925 -12.55919 36001 ft 449 kts 220°
2026-05-06 18:56 30.26412 -12.58069 35824 ft 449 kts 220°
2026-05-06 18:57 30.24750 -12.59491 35646 ft 448 kts 220°
2026-05-06 18:57 30.22245 -12.61631 35412 ft 448 kts 220°
2026-05-06 18:57 30.19736 -12.63775 35226 ft 449 kts 220°
2026-05-06 18:57 30.17223 -12.65920 35039 ft 449 kts 220°
2026-05-06 18:58 30.14704 -12.68068 34854 ft 450 kts 220°
2026-05-06 18:58 30.12187 -12.70214 34673 ft 450 kts 220°
2026-05-06 18:58 30.09669 -12.72367 34491 ft 451 kts 220°
2026-05-06 18:58 30.07149 -12.74523 34310 ft 451 kts 220°
2026-05-06 18:59 30.04625 -12.76681 34127 ft 452 kts 220°
2026-05-06 18:59 30.02099 -12.78839 33944 ft 452 kts 220°
2026-05-06 18:59 29.99566 -12.81001 33725 ft 453 kts 220°
2026-05-06 18:59 29.97029 -12.83165 33510 ft 454 kts 220°
2026-05-06 19:00 29.94486 -12.85334 33299 ft 455 kts 220°
2026-05-06 19:00 29.91939 -12.87504 33089 ft 456 kts 220°
2026-05-06 19:00 29.89386 -12.89678 32881 ft 457 kts 220°
2026-05-06 19:00 29.86827 -12.91855 32676 ft 458 kts 220°
2026-05-06 19:01 29.84265 -12.94034 32474 ft 459 kts 220°
2026-05-06 19:01 29.81692 -12.96221 32270 ft 459 kts 220°
2026-05-06 19:01 29.79119 -12.98406 32065 ft 460 kts 220°
2026-05-06 19:01 29.76542 -13.00594 31860 ft 461 kts 220°
2026-05-06 19:02 29.73991 -13.02757 31670 ft 462 kts 220°
2026-05-06 19:02 29.71400 -13.04953 31467 ft 463 kts 220°
2026-05-06 19:02 29.68804 -13.07152 31270 ft 464 kts 220°
2026-05-06 19:02 29.66169 -13.09383 31072 ft 465 kts 220°
2026-05-06 19:03 29.63598 -13.11557 30876 ft 466 kts 220°
2026-05-06 19:03 29.60987 -13.13765 30707 ft 466 kts 220°
2026-05-06 19:03 29.58370 -13.15976 30569 ft 468 kts 220°
2026-05-06 19:03 29.55746 -13.18191 30205 ft 468 kts 220°
2026-05-06 19:04 29.53121 -13.20406 29826 ft 469 kts 220°
2026-05-06 19:04 29.50492 -13.22623 29493 ft 470 kts 220°
2026-05-06 19:04 29.47852 -13.24847 29158 ft 471 kts 220°
2026-05-06 19:04 29.45208 -13.27073 28848 ft 472 kts 220°
2026-05-06 19:05 29.42560 -13.29301 28549 ft 473 kts 220°
2026-05-06 19:05 29.39907 -13.31532 28256 ft 473 kts 220°
2026-05-06 19:05 29.37250 -13.33766 27967 ft 474 kts 220°
2026-05-06 19:05 29.34590 -13.36000 27669 ft 475 kts 220°
2026-05-06 19:06 29.31921 -13.38239 27386 ft 475 kts 220°
2026-05-06 19:06 29.29254 -13.40477 27101 ft 476 kts 220°
2026-05-06 19:06 29.26579 -13.42718 26821 ft 477 kts 219°
2026-05-06 19:06 29.23899 -13.44964 26539 ft 477 kts 219°
2026-05-06 19:07 29.21219 -13.47207 26260 ft 478 kts 219°
2026-05-06 19:07 29.18536 -13.49453 25980 ft 478 kts 219°
2026-05-06 19:07 29.15925 -13.51802 25705 ft 475 kts 225°
2026-05-06 19:07 29.13460 -13.54317 25438 ft 475 kts 225°
2026-05-06 19:08 29.10985 -13.56797 25186 ft 473 kts 224°
2026-05-06 19:08 29.08507 -13.59255 24923 ft 469 kts 224°
2026-05-06 19:08 29.06042 -13.61687 24665 ft 467 kts 224°
2026-05-06 19:08 29.03583 -13.64110 24408 ft 466 kts 224°
2026-05-06 19:09 29.01135 -13.66518 24154 ft 464 kts 224°
2026-05-06 19:09 28.98696 -13.68918 23910 ft 462 kts 224°
2026-05-06 19:09 28.96261 -13.71309 23662 ft 460 kts 224°
2026-05-06 19:09 28.93839 -13.73688 23384 ft 459 kts 224°
2026-05-06 19:10 28.91427 -13.76056 23102 ft 456 kts 224°
2026-05-06 19:10 28.89024 -13.78413 22809 ft 454 kts 224°
2026-05-06 19:10 28.86639 -13.80752 22523 ft 451 kts 224°
2026-05-06 19:10 28.84262 -13.83080 22243 ft 449 kts 224°
2026-05-06 19:11 28.81897 -13.85395 21961 ft 447 kts 224°
2026-05-06 19:11 28.79546 -13.87696 21690 ft 444 kts 224°
2026-05-06 19:11 28.77236 -13.89954 21418 ft 442 kts 224°
2026-05-06 19:11 28.74880 -13.92257 21141 ft 440 kts 224°
2026-05-06 19:12 28.72564 -13.94519 20879 ft 437 kts 224°
2026-05-06 19:12 28.70292 -13.96737 20612 ft 435 kts 224°
2026-05-06 19:12 28.67995 -13.98977 20346 ft 433 kts 224°
2026-05-06 19:12 28.65712 -14.01203 20085 ft 431 kts 223°
2026-05-06 19:13 28.63439 -14.03418 19823 ft 429 kts 223°
2026-05-06 19:13 28.61178 -14.05619 19555 ft 427 kts 223°
2026-05-06 19:13 28.58927 -14.07810 19315 ft 425 kts 223°
2026-05-06 19:13 28.56686 -14.09989 19065 ft 423 kts 223°
2026-05-06 19:14 28.54455 -14.12158 18813 ft 421 kts 223°
2026-05-06 19:14 28.52236 -14.14314 18565 ft 419 kts 223°
2026-05-06 19:14 28.50026 -14.16460 18329 ft 417 kts 223°
2026-05-06 19:14 28.47826 -14.18595 18055 ft 415 kts 223°
2026-05-06 19:15 28.45635 -14.20720 17777 ft 413 kts 223°
2026-05-06 19:15 28.43453 -14.22836 17493 ft 412 kts 223°
2026-05-06 19:15 28.41274 -14.24948 17224 ft 411 kts 223°
2026-05-06 19:15 28.39106 -14.27051 16954 ft 410 kts 223°
2026-05-06 19:16 28.36941 -14.29151 16681 ft 409 kts 223°
2026-05-06 19:16 28.34782 -14.31244 16414 ft 407 kts 223°
2026-05-06 19:16 28.32631 -14.33328 16148 ft 407 kts 223°
2026-05-06 19:16 28.30482 -14.35408 15890 ft 405 kts 223°
2026-05-06 19:17 28.28339 -14.37482 15639 ft 405 kts 223°
2026-05-06 19:17 28.26198 -14.39553 15398 ft 404 kts 223°
2026-05-06 19:17 28.24072 -14.41608 15174 ft 398 kts 223°
2026-05-06 19:17 28.21997 -14.43613 14947 ft 385 kts 223°
2026-05-06 19:18 28.19985 -14.45556 14724 ft 375 kts 223°
2026-05-06 19:18 28.18027 -14.47445 14503 ft 365 kts 223°
2026-05-06 19:18 28.16143 -14.49263 14282 ft 357 kts 223°
2026-05-06 19:18 28.14273 -14.51067 14033 ft 349 kts 223°
2026-05-06 19:19 28.12439 -14.52834 13736 ft 343 kts 223°
2026-05-06 19:19 28.10632 -14.54574 13451 ft 338 kts 223°
2026-05-06 19:19 28.08852 -14.56288 13150 ft 334 kts 223°
2026-05-06 19:19 28.07086 -14.57989 12852 ft 333 kts 223°
2026-05-06 19:20 28.05321 -14.59686 12555 ft 332 kts 223°
2026-05-06 19:20 28.03563 -14.61376 12259 ft 331 kts 223°
2026-05-06 19:20 28.01812 -14.63059 11965 ft 329 kts 223°
2026-05-06 19:20 28.00075 -14.64742 11680 ft 327 kts 226°
2026-05-06 19:21 27.98511 -14.66597 11390 ft 325 kts 229°
2026-05-06 19:21 27.96970 -14.68458 11105 ft 324 kts 229°
2026-05-06 19:21 27.95423 -14.70305 10826 ft 323 kts 229°
2026-05-06 19:21 27.93878 -14.72137 10548 ft 322 kts 229°
2026-05-06 19:22 27.92333 -14.73961 10268 ft 320 kts 228°
2026-05-06 19:22 27.90794 -14.75773 9999 ft 319 kts 228°
2026-05-06 19:22 27.89260 -14.77578 9707 ft 318 kts 228°
2026-05-06 19:22 27.87728 -14.79381 9404 ft 317 kts 228°
2026-05-06 19:23 27.86200 -14.81176 9099 ft 316 kts 229°
2026-05-06 19:23 27.84685 -14.82956 8782 ft 312 kts 229°
2026-05-06 19:23 27.83188 -14.84714 8499 ft 308 kts 229°
2026-05-06 19:23 27.81712 -14.86446 8222 ft 303 kts 228°
2026-05-06 19:24 27.80282 -14.88123 7983 ft 298 kts 229°
2026-05-06 19:24 27.78858 -14.89795 7736 ft 293 kts 228°
2026-05-06 19:24 27.77458 -14.91436 7497 ft 288 kts 229°
2026-05-06 19:24 27.76079 -14.93052 7257 ft 283 kts 229°
2026-05-06 19:25 27.74724 -14.94639 7016 ft 279 kts 229°
2026-05-06 19:25 27.73387 -14.96206 6782 ft 275 kts 229°
2026-05-06 19:25 27.72068 -14.97750 6550 ft 271 kts 229°
2026-05-06 19:25 27.70793 -14.99281 6337 ft 265 kts 233°
2026-05-06 19:26 27.70053 -15.01135 6062 ft 258 kts 263°
2026-05-06 19:26 27.69954 -15.03145 5890 ft 258 kts 271°
2026-05-06 19:26 27.69937 -15.05166 5678 ft 257 kts 272°
2026-05-06 19:26 27.69937 -15.07183 5485 ft 257 kts 273°
2026-05-06 19:27 27.69947 -15.09191 5289 ft 256 kts 274°
2026-05-06 19:27 27.69963 -15.11198 5092 ft 256 kts 274°
2026-05-06 19:27 27.69983 -15.13204 4900 ft 255 kts 274°
2026-05-06 19:27 27.70006 -15.15206 4701 ft 255 kts 274°
2026-05-06 19:28 27.70031 -15.17205 4504 ft 255 kts 274°
2026-05-06 19:28 27.70055 -15.19205 4301 ft 255 kts 274°
2026-05-06 19:28 27.70079 -15.21205 4093 ft 255 kts 274°
2026-05-06 19:28 27.70102 -15.23200 3902 ft 255 kts 274°
2026-05-06 19:29 27.70126 -15.25166 3800 ft 253 kts 274°
2026-05-06 19:29 27.70149 -15.27151 3787 ft 253 kts 274°
2026-05-06 19:29 27.70172 -15.29169 3803 ft 254 kts 274°
2026-05-06 19:29 27.70195 -15.31133 3797 ft 254 kts 274°
2026-05-06 19:30 27.70218 -15.33127 3803 ft 254 kts 274°
2026-05-06 19:30 27.70238 -15.35061 3801 ft 235 kts 275°
2026-05-06 19:30 27.70255 -15.36826 3787 ft 215 kts 274°
2026-05-06 19:30 27.70271 -15.38413 3794 ft 193 kts 274°
2026-05-06 19:31 27.70289 -15.39916 3801 ft 191 kts 275°
2026-05-06 19:31 27.70306 -15.41412 3801 ft 191 kts 275°
2026-05-06 19:31 27.70341 -15.44410 3802 ft 191 kts 274°
2026-05-06 19:32 27.70559 -15.45854 3758 ft 185 kts 300°
2026-05-06 19:32 27.71425 -15.46857 3743 ft 180 kts 335°
2026-05-06 19:32 27.72637 -15.47116 3804 ft 180 kts 360°
2026-05-06 19:32 27.73885 -15.47000 3791 ft 178 kts
2026-05-06 19:33 27.75014 -15.46672 3625 ft 157 kts 18°
2026-05-06 19:33 27.76004 -15.46256 3415 ft 149 kts 19°
2026-05-06 19:33 27.76965 -15.45835 3209 ft 148 kts 20°
2026-05-06 19:33 27.77919 -15.45415 3020 ft 147 kts 20°
2026-05-06 19:34 27.78841 -15.45008 2843 ft 138 kts 20°
2026-05-06 19:34 27.79711 -15.44616 2763 ft 133 kts 20°
2026-05-06 19:34 27.80574 -15.44249 2633 ft 132 kts 19°
2026-05-06 19:34 27.81433 -15.43894 2459 ft 131 kts 19°
2026-05-06 19:35 27.82285 -15.43519 2221 ft 131 kts 21°
2026-05-06 19:35 27.83131 -15.43143 1896 ft 131 kts 21°
2026-05-06 19:35 27.83977 -15.42747 1633 ft 132 kts 21°
2026-05-06 19:35 27.84818 -15.42374 1546 ft 129 kts 20°
2026-05-06 19:36 27.85655 -15.42021 1408 ft 130 kts 21°
2026-05-06 19:36 27.86493 -15.41643 1317 ft 129 kts 22°
2026-05-06 19:36 27.87333 -15.41249 1159 ft 131 kts 22°
2026-05-06 19:36 27.88178 -15.40871 1005 ft 129 kts 21°
2026-05-06 19:37 27.89007 -15.40499 712 ft 128 kts 19°
2026-05-06 19:37 27.89835 -15.40140 567 ft 128 kts 20°
2026-05-06 19:37 27.90653 -15.39778 397 ft 125 kts 21°
2026-05-06 19:37 27.91200 -15.39540 296 ft 124 kts 20°
2026-05-06 19:38 27.92259 -15.39072 92 ft 116 kts 21°
2026-05-06 19:38 27.92894 -15.38789 62 ft 70 kts 21°
2026-05-06 19:38 27.93122 -15.38716 67 ft 17 kts 359°
2026-05-06 19:38 27.93242 -15.38733 71 ft 17 kts 352°
2026-05-06 19:39 27.93355 -15.38753 77 ft 15 kts 351°
2026-05-06 19:39 27.93425 -15.38801 84 ft 11 kts 291°
2026-05-06 19:39 27.93457 -15.38872 87 ft 9 kts 321°
2026-05-06 19:39 27.93514 -15.38868 86 ft 9 kts 22°
2026-05-06 19:40 27.93570 -15.38847 87 ft 5 kts 13°
2026-05-06 19:40 27.93582 -15.38852 86 ft 1 kts 308°
2026-05-06 19:40 27.93587 -15.38870 88 ft 4 kts 289°
2026-05-06 19:40 27.93598 -15.38903 88 ft 3 kts 291°
2026-05-06 19:41 27.93604 -15.38921 88 ft 2 kts 291°
2026-05-06 19:41 27.93606 -15.38927 88 ft 0 kts 291°